Home > Weather > Brasilia > Past weeks

Flag for Brazil Past Weather in Brasilia, Distrito Federal, Brazil — Yesterday and Last 2 Weeks

Now
77 °F

Passing clouds.


Feels Like: 78 °F
Forecast: N/A
Wind: 7 mph from Southwest

Location: Brasilia Aeroporto

Current Time: May 27, 2016 at 7:07:17 PM

Latest Report: May 27, 2016 at 6:00 PM


Visibility: N/A

Pressure: 30.12 "Hg (26.58 "Hg at 1091m altitude)

Humidity: 34%

Dew Point: 46 °F

Location of BrasiliaLocation

Past Weather in Brasilia — Graph

°F

Brasilia Temperature Yesterday

Maximum temperature yesterday: 81 °F (at 3:00 PM)
Minimum temperature yesterday: 61 °F (at 7:00 AM)
Average temperature yesterday: 70 °F

High & Low Weather Summary for the Past Weeks

 TemperatureHumidityPressure
High86 °F (May 13, 3:00 PM)100% (May 19, 12:00 AM)30.30 "Hg (May 19, 12:00 AM)
Low57 °F (May 24, 6:45 AM)17% (May 27, 2:00 PM)30.07 "Hg (May 17, 3:00 PM)
Average72 °F69%30.17 "Hg
* Reported May 12 6:00 PM — May 27 6:00 PM, Brasilia, Weather by CustomWeather, © 2016

Note: Actual official high and low records may vary slightly from our data, if they occured in-between our weather recording intervals... More about our weather records

Advertising

Brasilia Weather History for the Previous 24 Hours

Scroll right to see more
 ConditionsComfort  
Time TempWeatherWind HumidityBarometerVisibility
6:00 PM
Fri, May 27
77 °FPassing clouds.7 mph34%30.12 "HgN/A
5:00 PM81 °FPassing clouds.8 mph18%30.12 "HgN/A
4:00 PM81 °FScattered clouds.5 mph18%30.09 "HgN/A
3:00 PM82 °FScattered clouds.7 mph17%30.12 "HgN/A
2:00 PM82 °FScattered clouds.5 mph17%30.12 "HgN/A
1:00 PM81 °FPassing clouds.5 mph21%30.15 "HgN/A
12:00 PM79 °FPassing clouds.9 mph32%30.18 "HgN/A
11:00 AM77 °FSunny.10 mph36%30.21 "Hg10 mi
10:00 AM75 °FSunny.7 mph47%30.21 "Hg10 mi
9:00 AM70 °FSunny.6 mph64%30.21 "Hg10 mi
8:00 AM63 °FSunny.2 mph83%30.21 "Hg10 mi
7:00 AM57 °FSunny.2 mph94%30.18 "Hg10 mi
6:00 AM59 °FClear.No wind88%30.15 "Hg10 mi
5:00 AM59 °FClear.3 mph88%30.15 "Hg10 mi
4:00 AM59 °FClear.2 mph94%30.12 "Hg10 mi
3:00 AM59 °FClear.2 mph94%30.15 "Hg10 mi
2:00 AM63 °FClear.3 mph88%30.15 "Hg10 mi
1:00 AM63 °FClear.2 mph88%30.18 "Hg10 mi
12:00 AM64 °FClear.3 mph78%30.18 "Hg10 mi
11:00 PM
Thu, May 26
66 °FClear.3 mph73%30.21 "Hg10 mi
10:00 PM66 °FClear.3 mph78%30.18 "Hg10 mi
9:00 PM68 °FClear.5 mph73%30.18 "Hg10 mi
8:00 PM72 °FClear.7 mph61%30.18 "Hg10 mi
7:00 PM73 °FClear.5 mph53%30.15 "Hg10 mi
Weather by CustomWeather, © 2016

See weather overviewHow to use our weather pages